Location: NJAA Observatory
(40.6819°N, 74.8979°W)
Time: 23:58:40
(UTC-04:00)

Iridium 4 - Visible Passes

Search period start: 19 August 2017 00:00
Search period end: 29 August 2017 00:00
Orbit: 773 x 776 km, 86.4° (Epoch: 19 August)

Date Brightness Start Highest point End Pass type
(mag) Time Alt. Az. Time Alt. Az. Time Alt. Az.
19 Aug 7.7 00:04:00 17° WNW 00:04:06 17° WNW 00:07:32 10° NNW visible
19 Aug 6.5 21:49:05 28° ENE 21:49:05 28° ENE 21:53:14 10° NNE visible
19 Aug 6.9 23:29:29 32° WNW 23:29:29 32° WNW 23:34:01 10° NNW visible
20 Aug 7.2 21:14:33 15° E 21:14:43 15° ENE 21:17:37 10° NE visible
20 Aug 5.9 22:54:56 60° WNW 22:54:56 60° WNW 22:59:56 10° N visible
21 Aug 5.4 22:20:23 72° E 22:20:23 72° E 22:25:30 10° N visible
22 Aug 8.0 00:00:46 12° W 00:01:33 13° WNW 00:03:49 10° NW visible
22 Aug 6.0 21:45:49 38° E 21:45:58 38° E 21:50:45 10° NNE visible
22 Aug 7.3 23:26:12 23° W 23:26:43 24° WNW 23:30:53 10° NNW visible
23 Aug 6.8 21:11:15 20° E 21:11:46 21° E 21:15:32 10° NE visible
23 Aug 6.4 22:51:37 43° W 22:52:03 44° W 22:57:01 10° N visible
24 Aug 7.4 20:36:38 10° E 20:37:41 11° ENE 20:38:47 10° ENE visible
24 Aug 5.4 22:17:01 72° SSW 22:17:32 83° W 22:22:45 10° N visible
25 Aug 5.6 21:42:23 48° ESE 21:43:07 52° E 21:48:10 10° NNE visible
25 Aug 7.8 23:22:46 16° W 23:24:06 18° WNW 23:27:34 10° NNW visible
26 Aug 6.4 21:07:43 25° ESE 21:08:51 28° E 21:13:12 10° NNE visible
26 Aug 7.0 22:48:06 29° WSW 22:49:22 32° W 22:54:02 10° NNW visible
27 Aug 7.2 20:33:02 13° E 20:34:43 15° ENE 20:37:33 10° NE visible
27 Aug 5.9 22:13:25 45° SW 22:14:46 61° W 22:19:56 10° N visible
28 Aug 5.4 21:38:41 44° SSE 21:40:19 71° E 21:45:30 10° N visible
28 Aug 8.2 23:19:10 10° W 23:21:32 13° WNW 23:23:54 10° NW visible
